Flag for Germany Weather past 2 weeks in Herford, North Rhine-Westphalia, Germany

Now
64 °F

Light rain. Partly sunny.


Feels Like: 64 °F
Forecast: 52 / 65 °F
Wind: 12 mph from Southwest

Location: Bueckeburg

Current Time: Aug 30, 2014 at 4:38:51 PM

Latest Report: Aug 30, 2014 at 3:20 PM


Visibility: 6 mi

Pressure: 29.98 "Hg

Humidity: 83%

Dew point: 59 °F

Location of HerfordLocation

Historic Weather in Herford — Graph

°F

Herford temperature yesterday

Maximum temperature yesterday: 72 °F (at 2:20 PM)
Minimum temperature yesterday: 61 °F (at 7:20 AM)
Average temperature yesterday: 65 °F

Past Weeks' High & Low Weather Summary

 TemperatureHumidityPressure
High75 °F (Aug 28, 5:20 PM)100% (Aug 27, 3:20 AM)30.04 "Hg (Aug 27, 3:20 AM)
Low45 °F (Aug 27, 3:20 AM)33% (Aug 27, 6:20 PM)29.59 "Hg (Aug 18, 8:20 AM)
Average58 °F76%29.90 "Hg
* Reported Aug 15 4:20 PM — Aug 30 3:20 PM, Herford, Weather by CustomWeather, © 2014

Note: Actual official high and low records may vary slightly from our data, if they occured in-between our weather recording intervals... More about our weather records

Advertising

Herford weather history for previous 24 hours

 ConditionsComfort  
Time TempWeatherWind HumidityBarometerVisibility
3:20 PM
Aug 30
64 °FLight rain. Partly sunny.12 mph83%29.98 "Hg6 mi
2:20 PM66 °FPartly sunny.12 mph73%29.98 "HgN/A
1:20 PM64 °FPartly sunny.15 mph78%29.98 "HgN/A
12:20 PM66 °FPartly sunny.15 mph68%29.98 "HgN/A
11:20 AM64 °FBroken clouds.13 mph78%29.98 "HgN/A
10:20 AM63 °FPartly sunny.10 mph77%29.98 "HgN/A
9:20 AM61 °FPartly sunny.12 mph83%29.98 "HgN/A
8:20 AM61 °FPartly sunny.13 mph77%29.98 "HgN/A
7:20 AM61 °FPartly cloudy.10 mph77%29.98 "HgN/A
6:20 AM59 °FPassing clouds.7 mph82%29.98 "HgN/A
5:20 AM61 °FPassing clouds.8 mph77%29.98 "HgN/A
4:20 AM59 °FPartly cloudy.8 mph82%29.98 "HgN/A
3:20 AM59 °FPassing clouds.8 mph82%29.98 "HgN/A
2:20 AM61 °FPartly cloudy.6 mph77%29.98 "HgN/A
1:20 AM61 °FPartly cloudy.7 mph83%30.01 "HgN/A
12:20 AM61 °FPartly cloudy.6 mph83%30.01 "HgN/A
11:20 PM
Aug 29
61 °FPartly cloudy.5 mph83%30.01 "HgN/A
10:20 PM63 °FPartly cloudy.8 mph77%29.98 "HgN/A
8:20 PM64 °FPartly sunny.8 mph78%29.95 "HgN/A
7:20 PM66 °FBroken clouds.9 mph73%29.95 "HgN/A
6:20 PM68 °FPartly sunny.10 mph69%29.95 "HgN/A
5:20 PM70 °FScattered clouds.13 mph60%29.95 "HgN/A
4:20 PM72 °FScattered clouds.14 mph53%29.98 "HgN/A
Weather by CustomWeather, © 2014

See weather overviewHow to use our weather pages